Regional Weather Roundup
Issued by NWS

Home | Current Version | Previous Version | Text Only | Print | Product List | Glossary On
Versions: 1 2 3 4 5 6 7 8 9 10 11 12 13 14 15 16 17 18 19 20 21 22 23 24 25 26 27 28 29 30 31 32 33 34 35 36 37 38 39 40 41 42 43 44 45 46 47 48 49 50
000
ASUS43 KMPX 160210
RWRMN
WEATHER ROUNDUP FOR MINNESOTA
NATIONAL WEATHER SERVICE TWIN CITIES/CHANHASSEN MN
900 PM CDT SUN OCT 15 2017


NOTE: "FAIR" INDICATES FEW OR NO CLOUDS BELOW 12,000 FEET WITH NO
SIGNIFICANT WEATHER AND/OR OBSTRUCTIONS TO VISIBILITY. N/A MEANS
CURRENT SKY AND/OR WEATHER CONDITIONS ARE NOT AVAILABLE.

MNZ060>063-068>070-160300-
   Twin Cities Metro

CITY           SKY/WX    TMP DP  RH WIND       PRES   REMARKS
TWIN CITIES    CLOUDY    50  35  56 CALM      30.20R
ST PAUL        CLOUDY    47  40  76 CALM      30.21R
CRYSTAL        CLOUDY    43  36  76 CALM      30.19R
BLAINE         MOCLDY   N/A N/A N/A CALM      30.19R
LAKEVILLE        N/A     45  37  76 CALM      30.20R
EDEN PRAIRIE     N/A     48  36  63 W3        30.19R
SOUTH ST PAUL  CLOUDY    47  38  72 CALM      30.20R
LAKE ELMO      CLOUDY    45  41  87 CALM      30.21R
$$
MNZ001>005-007-008-013>017-022>024-027-028-160300-
   Northwest Minnesota

CITY           SKY/WX    TMP DP  RH WIND       PRES   REMARKS
BEMIDJI        PTCLDY    42  36  78 SW5       30.12S
HALLOCK        CLEAR     41  30  65 W7        30.09S
ROSEAU           N/A     45  36  70 W6        30.07S
WARROAD        CLEAR     43  34  70 W8        30.08R
THIEF RVR FALL CLEAR     40  32  73 W8        30.12S
CROOKSTON      CLEAR     37  30  75 SW6       30.13F
FOSSTON        CLEAR     34  27  75 CALM      30.13S
DETROIT LAKES  PTCLDY    41  36  81 SW3       30.16S
MOORHEAD       CLEAR     43  36  75 CALM      30.16S
PARK RAPIDS    MOCLDY    39  35  86 W9        30.14R
MAHNOMEN       FAIR      41  34  76 SW6       30.14S
$$
MNZ006-009>011-018-025>026-160300-
   North Central Minnesota

CITY           SKY/WX    TMP DP  RH WIND       PRES   REMARKS
BAUDETTE       CLEAR     40  31  70 SW6       30.07R
FLAG ISLAND    CLEAR     45  30  57 W8        30.04S
INTL FALLS     CLEAR     37  31  78 S5        30.08R
WASKISH        CLEAR     41  36  81 SW6       30.09S
BIG FORK       CLEAR     34  32  93 CALM      30.11S
LONGVILLE      CLOUDY    45  37  76 SW5       30.13S
GRAND RAPIDS   MOCLDY    37  34  89 S5        30.14S
CRANE LAKE     MOCLDY    39  34  81 S3        30.12S
ORR            CLEAR     36  30  80 CALM      30.09S
COOK           MOCLDY    37  34  87 CALM      30.11F
WALKER         CLOUDY    43  37  78 SW6       30.12S
$$
MNZ012-019>021-037-160300-
   Northeast Minnesota

CITY           SKY/WX    TMP DP  RH WIND       PRES   REMARKS
DULUTH         MOCLDY    41  32  70 W7        30.13S
ELY            CLOUDY    39  30  70 W9        30.11S
HIBBING        PTCLDY    30  28  92 CALM      30.12S
EVELETH        CLOUDY    37  36  93 CALM      30.13S
DULUTH HARBOR  CLOUDY    48  36  61 W8        30.16S
TWO HARBORS    CLOUDY    45  34  65 W5        30.11S
GRAND MARAIS     N/A     45  31  58 W3        30.11R
G MARAIS ARPRT CLOUDY    36  23  60 W5        30.09S
$$
MNZ029>031-032-039>041-046>048-054>057-064-160300-
   West Central Minnesota

CITY           SKY/WX    TMP DP  RH WIND       PRES   REMARKS
FERGUS FALLS   CLOUDY    45  39  81 CALM      30.17S
WHEATON        CLEAR     45  36  70 SW8       30.20R
MORRIS         MOCLDY    41  39  93 S5        30.18R
ALEXANDRIA     MOCLDY    43  36  76 SW5       30.18S
ELBOW LAKE     CLOUDY    40  37  89 S5        30.17S
WADENA         CLOUDY    45  37  76 SW3       30.15S
GLENWOOD       PTCLDY    39  36  87 SW5       30.19S
APPLETON       CLEAR     39  37  93 SW3       30.20R
BENSON         CLEAR     39  36  87 SW3       30.21S
ORTONVILLE     CLEAR     43  36  75 CALM      30.19S
MADISON        CLEAR     41  37  87 S3        30.21R
WILLMAR        FAIR      41  37  87 CALM      30.21F
$$
MNZ033>034-036-042>043-049>051-058-059-160300-
   Central Minnesota

CITY           SKY/WX    TMP DP  RH WIND       PRES   REMARKS
ST CLOUD       CLOUDY    44  40  85 SW3       30.19R
SAUK CENTRE    CLOUDY    44  37  78 SW5       30.19S
PAYNESVILLE    CLOUDY    44  40  85 W3        30.20S
AITKIN         CLOUDY    37  36  93 CALM      30.14S
PINE RIVER     CLOUDY    41  36  81 CALM      30.17S
BRAINERD       CLOUDY    42  37  82 SW6       30.16S
STAPLES        CLOUDY    45  36  70 SW5       30.16S
LONG PRAIRIE   CLOUDY    43  36  75 S5        30.18S
LITTLE FALLS   CLOUDY    43  32  65 CALM      30.18S
LITCHFIELD     CLOUDY    48  41  76 CALM      30.21R
BUFFALO        MOCLDY    46  38  72 W3        30.21R
MAPLE LAKE     MOCLDY    46  39  76 W3        30.20S
HUTCHINSON     MOCLDY    42  39  88 W3        30.22R
$$
MNZ037-044-045-052-053-160300-
   East Central Minnesota

CITY           SKY/WX    TMP DP  RH WIND       PRES   REMARKS
PRINCETON      CLOUDY    45  39  81 CALM      30.19S
MORA           PTCLDY    37  34  87 CALM      30.19S
CAMBRIDGE      CLOUDY    45  39  81 CALM      30.19S
RUSH CITY      MOCLDY    38  35  89 CALM      30.18S
MOOSE LAKE     PTCLDY    37  34  87 CALM      30.15S
HINCKLEY       FAIR      36  36 100 CALM      30.17F
CLOQUET        PTCLDY    43  32  65 SW3       30.14S
MCGREGOR       CLOUDY    41  36  81 SW3       30.16S
$$
MNZ071>073-080-081-089-090-097-098-160300-
   Southwest Minnesota

CITY           SKY/WX    TMP DP  RH WIND       PRES   REMARKS
MONTEVIDEO     CLEAR     43  34  70 CALM      30.21S
GRANITE FALLS  CLEAR     39  36  87 CALM      30.23S
CANBY          CLEAR     42  36  79 SW5       30.22S
MARSHALL       CLEAR     42  35  76 SW8       30.23R
REDWOOD FALLS  PTCLDY    46  36  68 W3        30.22R
OLIVIA         CLEAR     41  37  87 CALM      30.21S
PIPESTONE      CLEAR     45  36  70 W3        30.24R
WORTHINGTON    CLEAR     44  35  70 SW8       30.25S
JACKSON        PTCLDY    45  34  65 CALM      30.25R
TRACY          CLEAR     43  36  76 SW6       30.23S
SLAYTON        CLEAR     42  35  76 SW6       30.24S
$$
MNZ065>067-074>077-082>085-091>093-160300-
   South Central Minnesota

CITY           SKY/WX    TMP DP  RH WIND       PRES   REMARKS
MANKATO        PTCLDY    47  37  68 S3        30.21S
NEW ULM          N/A     46  37  71 NW7       30.22R
ST JAMES       CLEAR     46  36  66 W8        30.24R
FAIRMONT       CLEAR     48  35  60 W9        30.24R
GLENCOE        CLEAR     46  38  73 W6        30.20S
FARIBAULT      PTCLDY    45  36  70 CALM      30.21R
OWATONNA       PTCLDY    46  36  66 S3        30.21S
WASECA         MOCLDY    43  36  75 CALM      30.22S
ALBERT LEA     CLOUDY    50  41  71 CALM      30.22S
$$
MNZ078>079-086>088-094>096-160300-
   Southeast Minnesota

CITY           SKY/WX    TMP DP  RH WIND       PRES   REMARKS
ROCHESTER      CLOUDY    44  39  82 S6        30.22S
RED WING       CLOUDY    45  39  81 CALM      30.19S
STANTON        CLOUDY    44  38  79 CALM      30.19R
DODGE CENTER   MOCLDY    45  36  70 SW5       30.21S
WINONA         CLOUDY    46  41  81 CALM      30.23S
AUSTIN         CLOUDY    45  36  70 SW3       30.22S
PRESTON        CLOUDY    44  36  73 SW5       30.23S
$$
ABBREVIATIONS USED IN REMARKS
   TC - TEMPERATURES IN CELSIUS
  WCI - WIND CHILL INDEX
   HX - HEAT INDEX
  VSB - VISIBILITY
$$




USA.gov is the U.S. government's official web portal to all federal, state and local government web resources and services.